Regional Weather Roundup
Issued by NWS

Home | Current Version | Previous Version | Text Only | Print | Product List | Glossary On
Versions: 1 2 3 4 5 6 7 8 9 10 11 12 13 14 15 16 17 18 19 20 21 22 23 24 25 26 27 28 29 30 31 32 33 34 35 36 37 38 39 40 41 42 43 44 45 46 47 48 49 50
381
ASUS45 KTFX 291710
RWRMT
MONTANA REGIONAL WEATHER ROUNDUP
NATIONAL WEATHER SERVICE GREAT FALLS MT
1100 AM MDT FRI JUL 29 2016

NOTE: "FAIR" INDICATES FEW OR NO CLOUDS BELOW 12000 FEET WITH NO
SIGNIFICANT WEATHER AND/OR OBSTRUCTIONS TO VISIBILITY.

MTZ001>007-043-291800-
WEST OF THE DIVIDE

CITY           SKY/WX    TMP DP  RH WIND       PRES   REMARKS
KALISPELL      SUNNY     77  53  43 N13       30.05F
MISSOULA       SUNNY     76  49  38 CALM      30.07F
BUTTE          SUNNY     74  40  29 VRB3      30.19F
MULLAN PASS    SUNNY     72  43  35 VRB5      30.23S
ANACONDA         N/A     73  46  38 NE5       30.14F
DEER LODGE       N/A     73  45  35 CALM      30.17F
EUREKA           N/A     75  52  43 CALM      30.07F
HAMILTON         N/A     75  50  41 CALM      30.08F
LIBBY            N/A     75  50  41 NW5       30.04F
PLAINS           N/A     78  47  33 CALM      30.04
RONAN            N/A     78  54  43 CALM      30.11F
$$

MTZ008-052>055-291800-
SOUTHWEST MONTANA

CITY           SKY/WX    TMP DP  RH WIND       PRES   REMARKS
BOZEMAN        SUNNY     73  51  46 SW3       30.14F
DILLON         SUNNY     74  45  35 N5        30.16F
W YELLOWSTONE  SUNNY     70  41  35 CALM      30.25F
ENNIS          SUNNY     73  46  38 CALM      30.22F
THREE FORKS      N/A     76  33  20 CALM      30.11F
TWIN BRIDGES     N/A     75  45  34 NW6       30.13F
$$

MTZ009-010-012-014-046-048-049-054-291800-
EAST SLOPES AND CENTRAL MONTANA

CITY           SKY/WX    TMP DP  RH WIND       PRES   REMARKS
CUT BANK       SUNNY     71  54  54 CALM      30.12F
GREAT FALLS    SUNNY     73  54  51 VRB3      30.11F
MALMSTROM AFB  SUNNY     71  55  58 S3        30.11F
HELENA         SUNNY     77  52  41 VRB5      30.10F
CHOTEAU          N/A     73  52  46 CALM      30.14F
CONRAD           N/A     73  60  63 CALM      30.14S
$$

MTZ011-013-016-021-045-047-050-051-291800-
NORTH CENTRAL MONTANA

CITY           SKY/WX    TMP DP  RH WIND       PRES   REMARKS
HAVRE          SUNNY     75  58  55 W7        30.06F
N BAR RANCH      N/A     77  48  36 N8G14     30.15S
CHINOOK          N/A     73  61  64 NW8       30.04F
$$

MTZ017>020-022>027-061-062-291800-
NORTHEAST MONTANA

CITY           SKY/WX    TMP DP  RH WIND       PRES   REMARKS
GLASGOW        CLOUDY    73  60  63 S8        30.05F
JORDAN           N/A     76  58  53 VRB3      30.05F
SIDNEY         CLOUDY    65  61  87 S6        30.08F
WOLF POINT     SUNNY     77  58  51 SE3       30.05F
PLENTYWOOD       N/A     72  57  60 SW3       30.07F
POPLAR           N/A     75  54  46 CALM      30.06F
SCOBEY           N/A     75  52  44 E7        30.05F
$$

MTZ028>42-056>058-291800-
SOUTHCENTRAL AND SOUTHEAST MONTANA

CITY           SKY/WX    TMP DP  RH WIND       PRES   REMARKS
BAKER          MOSUNNY   72  60  66 SE5       30.10F
BILLINGS       MOSUNNY   77  52  41 VRB3      30.09F
LIVINGSTON     SUNNY     75  50  41 VRB6      30.13F
MILES CITY     SUNNY     75  59  57 S6        30.06F
EKALAKA          N/A     72  57  58 NE3       30.08S
FORSYTH          N/A     79  55  44 NE5       30.05S
LAUREL           N/A     76  55  47 E2        30.07F
ROUNDUP          N/A     76  52  43 CALM      30.00S
$$

REGIONAL REPORTS...DAKOTAS

CITY           SKY/WX    TMP DP  RH WIND       PRES   REMARKS
WILLISTON      SUNNY     75  54  47 MISG      30.07F
MINOT          MOSUNNY   78  60  53 E8        30.07F
DICKINSON      PTSUNNY   69  58  67 S7        30.08F
CROSBY           N/A     72  55  56 S7        30.09S
WATFORD CITY     N/A    N/A N/A N/A MISG        N/A
BISMARCK       PTSUNNY   78  59  51 CALM      30.08F
GRAND FORKS    PTSUNNY   75  56  51 N7        30.08S
FARGO          CLOUDY    76  58  53 N3        30.08S
BUFFALO SD       N/A     72  60  66 VRB5      30.04F
RAPID CITY     SUNNY     76  58  53 SE12      30.11S
$$

REGIONAL REPORTS...WYOMING/IDAHO/WASHINGTON

CITY           SKY/WX    TMP DP  RH WIND       PRES   REMARKS
GILLETTE       SUNNY     76  54  46 CALM      30.11F
SHERIDAN       SUNNY     78  51  38 NE5       30.10F
BUFFALO WY     SUNNY     78  43  28 N9        30.16S
CODY           SUNNY     75  52  43 NE3       30.15F
YELLOWSTONE LA   N/A     63  43  48 E5        30.34F
IDAHO FALLS    SUNNY     77  40  26 VRB3      30.11F
SALMON         SUNNY     75  48  38 CALM      30.08F
BOISE          SUNNY     84  44  24 W6        29.99F
SPOKANE        MOSUNNY   81  52  36 NE7       29.99F
$$

REGIONAL REPORTS...ALBERTA

CITY           SKY/WX    TMP DP  RH WIND       PRES   REMARKS
EDMONTON       SUNNY     73  59  60 SW6       29.97F
CALGARY        MOSUNNY   72  52  49 CALM      30.07F
LETHBRIDGE     MOSUNNY   72  57  60 VRB2      30.08F
MEDICINE HAT   MOSUNNY   79  59  50 VRB2      30.04F
WATERTON GATE    N/A     75  54  46 E3          N/A
MILK RIVER       N/A     73  55  53 N2          N/A
ONEFOUR          N/A     73  54  49 NW10        N/A
$$

REGIONAL REPORTS...SASKATCHEWAN

CITY           SKY/WX    TMP DP  RH WIND       PRES   REMARKS
SWIFT CURRENT  SUNNY     70  59  68 W6        30.03F
REGINA         PTSUNNY   73  59  60 SW7       30.02F
SASKATOON      PTSUNNY   66  63  88 SW6       30.00S
CYPRESS HILLS    N/A     68  54  60 NW3         N/A
VAL MARIE        N/A     68  57  68 SE7         N/A
ROCKGLEN         N/A     70  57  64 W2          N/A
ASSINIBOIA       N/A    N/A N/A N/A SW2         N/A
$$




USA.gov is the U.S. government's official web portal to all federal, state and local government web resources and services.